Temp
18 17 16 16 19 19 20 20 20 20 20 20 20 20 19 19 19 18 18 18 18 18 18 18 18 18 18 18 18 19 19 18 18 18 18 18 18 18 18 17 17 18
18 17 16 18 19 20 20 20 20 20 20 20 19 19 19 19 18 18 18 18 18 18 18 18 18 18 19 18 18 19 19 18 18 18 18 18 18 18 18 18 18 18
17 17 17 19 20 19 20 20 19 20 19 19 19 18 18 18 18 19 18 18 18 18 18 18 18 18 19 19 19 19 19 18 19 18 18 19 19 19 18 18 18 18
17 17 18 19 19 19 19 19 19 19 19 18 18 18 18 18 18 18 18 18 18 17 17 18 18 18 19 19 19 19 19 19 19 19 19 19 19 19 18 18 18 18
18 19 19 19 19 19 19 19 19 19 18 18 18 18 18 18 18 18 18 18 18 18 18 18 18 18 18 19 19 19 19 19 19 19 19 19 19 19 19 18 18 19
19 19 19 19 19 19 19 19 19 19 18 18 18 18 18 18 18 19 18 18 18 18 18 18 18 18 18 19 19 19 19 19 19 19 20 20 19 19 19 19 18 19
19 19 19 19 19 19 19 19 19 19 18 18 18 18 18 18 19 19 18 18 18 18 18 18 18 18 18 19 19 19 19 19 19 20 20 20 20 20 20 19 19 19
18 19 19 19 19 19 19 19 19 19 18 18 18 18 18 18 19 19 19 19 19 19 19 18 18 18 18 19 19 19 19 19 19 20 20 20 20 20 20 19 19 19
17 18 19 19 19 19 19 19 19 18 18 18 18 18 18 19 19 19 19 19 19 19 19 19 19 18 18 19 19 19 19 19 19 20 20 20 20 20 20 19 19 19
16 17 18 19 19 19 19 19 19 19 18 19 19 19 19 19 19 19 19 19 19 19 19 19 19 19 19 19 19 19 19 19 19 19 19 20 20 20 20 20 19 19
16 16 17 18 19 19 19 19 19 19 19 19 19 19 19 19 19 19 19 19 19 19 19 19 19 19 19 19 19 19 19 19 19 19 19 20 20 20 20 20 19 19
16 17 17 18 19 19 18 18 19 19 19 19 19 19 19 19 19 19 19 19 19 19 19 19 19 19 19 19 19 19 19 19 19 19 19 19 19 20 20 20 20 20
17 17 17 17 18 18 18 18 18 18 19 19 19 19 19 19 19 19 19 19 19 19 20 19 19 19 19 19 19 19 19 19 19 19 19 19 19 19 19 19 19 19
16 16 17 17 17 17 18 18 18 18 19 19 19 19 18 19 19 18 18 19 19 19 19 19 19 19 19 19 19 19 19 19 19 19 19 19 19 19 19 19 19 19
15 16 16 16 16 17 17 18 18 18 18 19 19 18 18 19 19 18 19 19 19 19 19 19 19 19 19 19 19 19 19 19 19 19 19 19 19 19 19 19 19 19
14 15 15 15 15 16 16 16 17 17 18 18 18 18 18 18 18 18 18 18 18 18 18 18 18 18 18 19 19 19 19 19 19 19 19 19 19 19 18 18 19 18
14 14 14 14 14 14 15 15 15 16 16 17 17 17 17 18 18 18 18 18 18 17 17 17 17 17 18 18 18 18 18 18 18 19 19 19 19 18 18 18 18 18
14 14 14 14 14 14 14 14 15 15 15 15 15 16 16 17 17 17 17 17 17 17 17 17 16 16 17 17 17 18 18 18 18 19 19 18 19 19 19 18 18 18
13 13 13 13 13 13 13 14 14 15 15 15 15 15 16 16 16 16 16 16 16 16 16 16 16 16 16 17 17 17 17 17 17 18 19 18 19 19 18 18 18 18
13 13 13 12 12 12 12 13 13 14 14 14 14 15 15 15 15 15 16 16 16 16 15 15 15 16 16 16 16 16 17 17 17 17 18 18 18 18 18 18 18 18
13 13 13 13 13 13 13 12 13 13 13 13 14 14 15 15 15 15 15 15 15 15 15 14 15 15 15 16 16 16 16 16 16 16 16 17 17 17 16 17 17 17
13 13 13 13 13 13 13 13 13 13 13 13 13 14 14 15 14 14 14 14 14 14 14 14 14 14 15 15 16 16 16 16 16 16 16 16 16 16 15 16 16 17
12 12 12 13 12 12 12 13 13 13 13 13 14 14 14 14 14 14 14 14 14 13 13 13 14 14 14 15 15 15 15 15 15 15 15 16 16 15 15 16 17 16
11 11 12 12 12 12 12 12 12 12 13 13 14 14 14 14 14 14 13 13 13 13 13 13 13 13 13 14 14 14 14 15 15 15 15 15 15 16 16 16 16 15
10 11 11 12 12 12 12 12 12 12 12 13 13 13 13 13 13 13 12 12 12 12 12 12 12 13 13 13 13 14 14 14 14 14 15 15 15 16 15 15 15 14
10 10 11 11 11 11 11 11 12 12 12 13 13 13 13 13 12 12 12 12 12 11 11 11 11 12 12 12 13 13 13 13 13 14 14 14 14 14 14 14 14 13
Height
794 799 805 805 803 804 803 803 804 805 806 808 810 812 813 815 818 819 820 821 823 824 825 826 827 828 829 830 830 831 832 833 834 834 835 835 836 836 837 838 838 839
794 799 803 803 802 803 803 803 805 806 808 809 811 813 814 816 818 819 821 822 824 825 826 827 828 829 830 830 831 832 833 834 835 835 835 836 836 837 837 838 838 839
795 799 801 801 801 802 803 804 806 807 809 810 812 814 815 817 819 820 822 823 825 826 827 828 829 830 830 831 832 833 833 834 835 836 836 837 837 837 838 838 838 839
795 797 799 799 800 801 803 805 807 808 809 811 812 814 816 817 819 821 823 824 826 827 828 829 830 830 831 832 832 833 834 835 836 836 837 837 837 837 838 838 838 839
792 794 795 797 799 801 803 805 807 808 810 812 813 814 816 818 819 821 824 825 827 828 829 830 831 831 832 833 833 834 835 836 836 837 837 837 838 838 838 839 838 839
789 791 794 796 798 801 803 805 807 809 811 812 813 815 816 818 820 822 824 826 827 828 829 830 831 832 833 834 834 835 835 836 836 837 837 837 838 838 838 839 839 839
789 790 793 795 798 801 803 805 807 809 812 813 814 815 817 819 820 822 824 826 827 829 830 831 832 833 834 834 835 836 836 836 837 837 837 837 838 838 838 839 839 839
789 790 793 796 798 801 803 806 809 811 813 814 815 816 817 819 821 822 824 826 827 829 830 831 832 833 834 835 836 836 837 837 837 837 837 837 838 838 838 839 840 840
790 791 793 796 799 802 804 807 810 812 813 815 816 817 818 820 821 823 825 826 827 829 830 831 833 834 835 836 836 837 837 838 838 837 838 838 838 838 839 840 840 841
792 793 794 796 799 802 804 807 809 811 813 814 816 818 819 820 822 823 825 826 827 829 830 831 832 834 835 836 837 838 838 838 838 839 839 839 838 838 839 840 841 842
794 796 797 798 800 802 804 806 809 811 812 814 816 818 819 821 822 823 825 826 828 829 830 831 832 834 835 836 837 838 838 839 839 840 840 840 840 840 840 841 842 842
794 796 798 800 801 803 805 807 809 811 813 815 817 818 819 821 822 823 825 826 828 829 830 831 832 834 835 836 837 838 839 840 840 840 841 841 841 841 841 842 842 843
793 795 797 800 802 804 806 808 810 812 814 815 817 818 820 821 822 824 825 826 828 829 830 832 833 834 835 836 838 838 839 840 841 841 841 842 842 842 843 843 843 843
793 795 797 800 803 805 807 809 811 813 814 816 817 818 820 821 822 824 826 827 828 829 830 831 833 834 835 837 838 839 840 840 841 842 842 842 843 843 843 844 844 844
794 796 799 802 804 806 808 809 811 814 815 816 817 819 820 822 823 825 826 827 828 829 831 832 833 834 835 837 838 839 840 841 841 842 842 843 843 843 844 844 844 845
795 798 801 803 805 807 809 810 812 814 815 816 818 819 821 822 824 825 826 828 829 830 831 833 834 834 835 836 837 838 840 841 841 842 842 843 843 843 844 844 844 844
795 798 802 805 808 809 810 811 812 813 815 817 818 819 822 823 825 826 827 829 830 831 833 834 834 835 835 836 837 838 839 840 841 842 842 842 843 843 843 844 844 844
795 799 803 807 810 811 812 812 813 813 815 817 818 820 822 824 825 827 828 829 831 832 833 834 835 836 836 837 838 839 839 840 841 841 841 842 842 842 842 842 843 843
798 800 804 808 811 813 814 814 814 815 816 818 820 821 823 825 826 827 829 830 831 833 834 835 836 837 838 838 839 840 840 840 841 841 841 841 841 841 841 841 841 842
800 802 805 808 811 814 816 816 816 817 818 819 821 822 824 826 827 828 829 831 831 833 834 835 836 837 838 839 839 840 840 840 841 841 840 840 840 840 840 839 840 840
804 805 807 809 812 815 817 817 817 818 820 821 822 823 824 826 828 829 830 831 832 834 835 836 837 838 838 838 839 840 840 840 840 840 840 840 839 838 839 838 838 839
808 808 809 811 813 815 816 817 818 819 821 822 823 824 825 827 829 829 830 831 833 834 836 836 837 838 838 838 839 840 840 840 840 840 840 840 839 838 838 837 836 837
811 812 812 813 815 815 816 817 818 819 822 823 824 825 826 828 829 830 831 832 833 835 836 837 838 838 838 838 838 839 839 839 840 840 840 839 839 838 837 836 836 836
815 815 816 816 817 817 818 820 820 821 823 824 825 826 827 828 829 830 831 832 833 835 836 837 837 837 837 838 838 838 839 839 839 840 839 839 838 837 837 836 836 836
818 818 818 819 820 820 821 822 822 823 824 825 825 826 827 828 829 830 831 833 834 835 836 837 838 837 837 837 837 837 838 838 839 839 839 839 838 836 836 836 837 837
821 821 821 822 822 823 823 824 824 825 826 826 827 827 828 829 830 831 832 833 835 836 837 837 837 837 837 837 837 837 837 838 839 838 838 839 838 836 836 836 836 837
Wind_Speed
16 14 15 15 13 13 12 11 11 10 9 9 9 9 9 10 9 8 8 7 6 5 4 4 4 4 4 4 3 3 4 4 4 4 4 4 4 4 5 6 5 5
18 17 17 16 13 12 11 11 12 11 10 10 10 10 10 11 10 9 8 7 6 5 5 5 5 5 5 5 5 5 6 6 5 5 5 5 4 3 3 5 5 6
19 19 18 16 14 14 13 13 12 11 11 11 11 11 11 11 10 9 8 7 7 7 6 6 6 6 6 6 6 6 7 7 7 6 6 5 4 3 3 3 4 4
21 20 18 15 15 15 15 14 13 12 12 12 11 11 10 11 10 9 8 7 7 8 7 7 7 7 7 7 7 7 7 7 7 6 5 4 3 3 3 3 4 5
20 18 16 15 16 15 15 15 13 12 12 11 11 10 10 11 11 10 9 7 8 8 8 8 7 7 8 8 7 8 8 7 6 5 5 4 4 4 4 4 5 6
18 17 16 16 16 15 15 14 13 12 12 10 10 10 10 11 11 10 9 8 8 8 8 8 8 8 8 8 8 8 7 7 6 6 5 5 5 4 4 4 5 6
18 16 16 16 16 15 15 14 13 12 11 10 10 10 12 12 11 10 10 9 9 8 8 9 9 9 8 8 8 7 6 6 6 6 6 6 5 5 5 5 5 6
17 16 15 15 15 15 14 14 13 12 11 10 9 10 12 13 11 11 9 9 9 8 8 9 9 10 9 8 7 6 6 6 6 6 6 6 6 6 6 5 5 6
14 15 15 15 14 14 14 14 13 12 11 10 9 10 12 12 11 11 10 9 9 8 8 9 9 10 9 7 7 7 7 7 6 6 6 6 6 7 7 7 6 7
10 11 15 15 15 15 14 15 14 13 12 10 9 10 11 12 11 10 10 9 8 9 9 9 10 10 9 8 7 7 8 8 7 7 7 6 5 7 8 8 7 8
7 8 11 12 14 15 15 15 14 13 12 11 10 10 10 11 11 10 10 9 8 9 9 10 10 10 9 9 8 8 8 8 8 8 6 5 5 6 7 7 8 8
13 13 12 10 11 14 14 14 14 13 13 12 10 10 10 9 10 10 10 9 9 9 9 10 10 11 10 10 9 9 9 8 8 7 6 6 5 5 5 6 6 6
18 19 15 10 11 13 13 13 13 12 13 12 11 10 10 9 9 10 9 9 9 8 9 10 11 11 11 10 10 9 9 8 7 7 6 6 5 5 5 5 5 5
18 19 15 12 13 14 12 12 12 12 11 11 11 10 10 9 9 10 10 8 8 8 9 10 11 11 11 10 10 9 8 8 7 7 6 6 5 5 5 4 4 4
13 16 16 15 15 15 13 11 12 12 11 11 11 10 9 8 9 10 11 9 8 8 9 10 10 10 11 10 9 9 8 7 7 6 6 6 5 5 5 5 5 5
11 12 13 13 13 14 14 13 12 11 10 11 11 10 8 8 9 10 10 9 8 7 7 8 7 7 10 10 9 9 8 6 7 7 6 7 7 6 7 6 6 5
13 12 10 9 9 11 13 15 15 14 12 11 11 11 9 7 8 9 9 8 8 7 7 6 4 4 9 10 9 10 8 5 5 7 7 7 8 8 7 7 7 6
13 13 12 10 9 10 13 16 17 17 16 13 13 13 11 8 7 8 8 7 7 6 6 5 2 2 8 10 8 9 8 4 3 6 7 7 8 8 8 7 7 7
12 13 13 12 10 10 13 15 16 17 16 14 12 12 11 9 7 7 8 7 6 5 4 3 1 3 6 9 9 9 9 7 5 6 7 8 8 8 8 8 8 8
12 13 13 12 10 10 12 14 15 15 15 13 11 10 10 8 6 7 8 7 6 6 3 2 4 5 6 7 9 9 10 10 9 8 7 8 9 9 9 10 9 9
12 12 12 12 12 11 10 10 13 14 12 8 7 7 7 6 5 6 8 7 7 5 4 5 7 7 7 8 10 10 11 11 12 10 10 10 11 11 12 11 11 10
11 11 12 13 13 12 11 10 13 15 12 7 5 6 7 6 5 6 6 6 5 5 5 8 9 8 8 9 9 10 11 11 11 11 11 12 14 16 16 14 12 12
14 14 13 14 13 11 11 11 12 13 12 9 8 8 8 8 7 7 6 6 7 6 5 7 6 6 7 7 8 9 10 10 9 9 11 13 15 17 15 12 12 13
15 15 14 13 13 11 10 10 10 10 10 9 10 9 9 10 9 9 9 8 8 8 6 6 4 4 5 5 6 7 7 8 8 9 13 16 15 14 13 12 12 14
16 16 15 14 13 12 10 9 9 9 8 9 11 10 10 10 10 10 9 9 9 8 5 2 2 2 3 3 3 4 5 7 7 8 13 15 13 11 11 11 11 11
17 17 16 15 13 13 12 10 9 9 8 7 8 10 11 10 10 11 10 10 10 10 7 4 3 2 2 1 1 2 4 4 4 5 9 10 10 11 12 12 12 10
Wind_Direction
170 176 198 196 176 171 170 160 154 151 149 148 146 145 143 145 148 143 133 130 132 132 134 140 139 142 146 134 139 144 135 145 160 155 156 161 162 169 175 179 181 180
171 177 191 186 171 167 162 153 150 149 149 146 143 142 141 142 144 141 137 139 143 143 146 150 146 150 151 140 138 135 129 134 139 137 136 133 138 153 163 173 183 176
175 178 181 175 162 156 152 147 147 146 141 139 139 138 138 140 142 141 143 145 143 146 149 148 148 149 146 142 140 135 134 138 136 136 136 133 139 147 146 171 181 170
178 174 166 161 155 150 147 146 146 143 140 141 142 142 140 140 143 145 147 145 141 145 147 146 150 148 143 142 142 139 139 140 138 139 142 144 152 150 147 171 176 173
169 161 153 153 154 149 145 146 146 142 142 146 145 144 144 144 149 151 150 146 145 148 150 151 151 147 147 148 147 146 146 148 150 153 155 155 159 159 162 177 177 172
159 155 151 150 150 149 147 148 149 147 148 151 150 149 151 153 156 155 152 152 151 152 155 158 157 155 156 156 154 156 158 160 163 167 163 156 159 162 161 168 171 164
158 152 148 146 145 147 149 149 148 148 151 153 155 154 155 159 160 156 156 156 155 156 158 161 165 164 164 163 163 166 167 163 166 170 160 149 153 154 143 146 159 158
160 151 145 144 146 146 149 152 150 149 151 151 155 158 158 162 160 156 160 160 158 159 157 161 169 168 168 172 169 168 164 163 171 168 150 141 147 146 137 138 148 152
161 152 145 142 146 148 150 154 154 152 151 151 157 162 162 163 161 160 164 164 162 161 156 161 167 168 171 173 169 167 167 170 170 153 140 144 149 143 137 135 138 144
156 145 144 145 151 154 151 154 157 154 152 155 161 165 166 167 165 165 167 167 167 165 160 161 162 164 170 169 166 167 166 164 159 149 149 151 139 130 131 131 135 140
137 136 144 150 156 156 152 154 157 155 154 158 163 165 167 169 168 170 171 170 172 170 165 162 161 162 165 163 161 162 161 159 154 152 152 144 126 120 123 126 133 140
148 154 155 159 159 154 154 157 158 157 157 159 164 166 166 169 171 171 171 173 175 175 169 165 163 163 162 161 159 157 156 155 151 151 147 139 135 130 124 127 133 136
158 160 155 155 157 153 154 158 159 161 162 160 164 166 163 168 171 168 170 174 173 174 171 167 165 164 162 162 160 156 153 152 152 153 147 142 145 140 132 134 134 136
155 158 156 153 153 150 151 158 161 162 162 161 163 164 164 170 170 166 169 171 171 174 171 166 166 166 165 165 163 160 156 156 159 160 156 154 154 148 141 141 141 142
145 155 158 152 147 145 144 148 156 162 163 160 160 159 161 169 169 167 170 169 169 170 164 163 166 164 167 170 164 162 164 165 168 170 171 171 170 166 166 167 163 155
128 140 151 149 146 147 142 134 135 146 151 152 154 154 156 164 166 166 167 165 162 156 153 161 164 162 172 173 160 160 168 171 176 185 189 188 189 188 185 188 188 181
129 132 146 153 150 148 144 139 134 131 124 122 129 134 135 144 155 160 162 160 158 155 152 157 158 171 183 181 167 166 173 178 192 202 205 203 203 203 201 203 207 206
138 135 141 149 150 151 154 152 148 141 129 115 112 121 129 131 129 132 139 144 148 151 148 148 153 189 189 188 186 185 187 195 219 216 214 217 218 217 217 215 216 221
130 129 134 140 144 152 155 155 153 147 137 125 117 120 130 138 135 130 131 132 135 135 126 130 195 199 188 195 206 214 216 221 241 249 238 233 232 230 231 230 226 225
125 125 131 136 139 148 151 150 151 144 133 130 130 124 120 125 141 153 154 149 148 148 138 193 223 213 203 212 223 232 234 231 239 258 258 247 244 241 239 238 233 231
116 126 136 141 143 149 150 145 152 156 151 144 140 135 130 126 130 154 167 170 168 169 191 230 236 229 216 220 230 236 240 238 241 253 259 256 256 252 248 244 238 238
81 102 123 135 137 145 152 149 155 165 171 173 156 144 146 147 148 156 162 168 164 165 200 222 232 236 226 221 229 236 244 247 250 257 258 258 261 257 251 248 245 244
66 78 96 112 117 125 139 143 150 158 165 174 173 164 154 150 148 139 133 141 148 152 185 212 221 235 237 233 232 237 245 247 249 261 263 259 262 262 257 254 254 253
64 69 76 88 93 96 109 122 130 139 152 166 168 161 153 148 138 122 119 130 139 148 179 205 212 219 225 228 229 235 244 242 244 262 266 261 260 264 266 267 267 262
61 63 65 71 75 77 85 98 106 110 130 155 155 144 135 134 130 119 113 114 111 114 132 168 182 188 195 212 222 236 251 248 251 271 276 273 274 278 281 283 293 299
55 56 59 60 66 75 78 79 86 91 95 115 131 127 117 115 121 121 117 115 120 125 127 115 103 125 137 151 215 258 262 249 257 290 297 299 302 303 301 297 306 326